KC5GLG Weather Reports


time (UTC)temp
F
wind
direction
speed
knots
gust
knots
rain 1hr
in
rain 24hr
in
rain mn
in
humidity
%
barometer
mb
20260509231610 87 73 1.7 0.0 0.00 0.00 0.00 67 1006.0
20260509230045 87 91 2.6 0.0 0.00 0.00 0.00 64 1005.6
20260509224640 88 281 1.7 0.0 0.00 0.00 0.00 63 1005.5
20260509223131 88 44 1.7 0.0 0.00 0.00 0.00 64 1005.3
20260509220113 87 339 0.9 0.0 0.00 0.00 0.00 66 1005.2
20260509214501 86 308 1.7 0.0 0.00 0.00 0.00 69 1005.4
20260509211549 84 331 1.7 0.0 0.00 0.00 0.00 74 1005.5
20260509210135 83 323 0.9 0.0 0.00 0.00 0.00 73 1005.8
20260509204628 84 5 1.7 0.0 0.00 0.00 0.00 73 1006.0
20260509203016 83 348 0.9 0.0 0.00 0.00 0.00 74 1006.3
20260509201608 83 17 2.6 0.0 0.00 0.00 0.00 75 1006.4
20260509200200 84 30 2.6 0.0 0.00 0.00 0.00 75 1006.6
20260509194547 82 314 0.9 0.0 0.00 0.00 0.00 78 1006.7
20260509193044 81 309 1.7 0.0 0.00 0.00 0.00 80 1006.8
20260509190025 79 5 1.7 0.0 0.00 0.00 0.00 82 1007.2
20260509183006 79 355 1.7 0.0 0.00 0.00 0.00 81 1007.5
20260509181607 78 167 0.9 0.0 0.00 0.00 0.00 79 1007.5
20260509174538 77 47 3.5 0.0 0.00 0.00 0.00 76 1008.1
20260509171528 76 346 1.7 0.0 0.00 0.00 0.00 72 1008.2
20260509170013 76 55 1.7 0.0 0.00 0.00 0.00 71 1008.2
20260509164505 76 295 0.9 0.0 0.00 0.00 0.00 71 1008.5
20260509161647 75 165 0.9 0.0 0.00 0.00 0.00 71 1008.7
20260509160039 75 181 0.9 0.0 0.00 0.00 0.00 71 1008.6
20260509153024 74 39 0.0 0.0 0.00 0.00 0.00 72 1008.5
20260509150005 73 39 0.0 0.0 0.00 0.00 0.00 72 1008.0
20260509141541 73 39 0.0 0.0 0.00 0.00 0.00 72 1008.1
20260509134523 73 180 0.0 0.0 0.00 0.00 0.00 72 1008.3
20260509131505 72 103 0.0 0.0 0.00 0.00 0.00 73 1008.3
20260509124559 72 156 0.0 0.0 0.00 0.00 0.00 73 1008.1
20260509123145 72 156 0.0 0.0 0.00 0.00 0.00 73 1008.1
20260509121636 72 156 0.0 0.0 0.00 0.00 0.00 73 1008.0
20260509120128 72 30 0.0 0.0 0.00 0.00 0.00 74 1008.2
20260509114537 72 30 0.0 0.0 0.00 0.00 0.00 74 1007.7
20260509113009 72 30 0.9 0.0 0.00 0.00 0.00 74 1007.7
20260509111601 71 55 0.0 0.0 0.00 0.00 0.00 74 1007.7
20260509104645 71 99 0.0 0.0 0.00 0.00 0.00 75 1007.4
20260509103036 71 99 0.0 0.0 0.00 0.00 0.00 75 1007.3
20260509101529 71 99 0.0 0.0 0.00 0.00 0.00 75 1007.4
20260509100020 71 99 0.0 0.0 0.00 0.00 0.00 75 1007.4
20260509094613 71 99 0.0 0.0 0.00 0.00 0.00 75 1007.4
20260509093005 71 99 0.0 0.0 0.00 0.00 0.00 75 1007.4
20260509090106 71 99 0.0 0.0 0.00 0.00 0.00 75 1007.4
20260509084547 72 99 0.0 0.0 0.00 0.00 0.00 75 1007.5
20260509081529 72 99 0.0 0.0 0.00 0.00 0.00 76 1007.5
20260509080017 72 99 0.0 0.0 0.00 0.00 0.00 76 1007.7
20260509074523 72 99 0.0 0.0 0.00 0.00 0.00 76 1008.1
20260509073005 71 99 0.0 0.0 0.00 0.00 0.00 77 1008.0
20260509070055 71 99 0.0 0.0 0.00 0.00 0.00 77 1008.0
20260509064542 71 99 0.0 0.0 0.00 0.00 0.00 77 1008.0
20260509063134 71 152 0.0 0.0 0.00 0.00 0.00 77 1008.0
20260509061525 71 232 0.0 0.0 0.00 0.00 0.00 78 1008.0
20260509060016 71 163 0.0 0.0 0.00 0.00 0.00 78 1008.1
20260509054607 71 142 0.9 0.0 0.00 0.00 0.00 78 1008.1
20260509051554 71 154 0.9 0.0 0.00 0.00 0.00 79 1008.1
20260509044639 71 158 0.9 0.0 0.00 0.00 0.49 79 1008.4
20260509040012 71 134 0.9 0.0 0.00 0.00 0.49 80 1008.1
20260509034505 71 283 0.0 0.0 0.00 0.00 0.49 80 1007.8
20260509023029 71 173 1.7 0.0 0.00 0.00 0.49 82 1007.2
20260509014505 72 110 0.0 0.0 0.00 0.00 0.49 82 1007.1
20260509011602 73 110 0.0 0.0 0.00 0.00 0.49 82 1006.9
20260509003131 74 120 0.0 0.0 0.00 0.00 0.49 82 1007.3
20260509001520 74 120 0.9 0.0 0.00 0.00 0.49 82 1007.5
20260509000009 75 120 0.0 0.0 0.00 0.00 0.49 81 1007.8